Tracking 25650 objects as of 16-May-2022
HD Live streaming from Space Station
objects crossing your sky now

FLOCK 3P 28

Track FLOCK 3P 28 now!
10-day predictions
FLOCK 3P 28 is classified as:


NORAD ID: 41960
Int'l Code: 2017-008N
Perigee: 452.6 km
Apogee: 457.6 km
Inclination: 97.3 °
Period: 93.5 minutes
Semi major axis: 6826 km
RCS: Unknown
Launch date: February 15, 2017
Source: United States (US)
Launch site: SRIHARIKOTA (SRI)
aabbcc
Your satellite tracking list
Your tracking list is empty




NASA's NSSDC Master Catalog

Two Line Element Set (TLE):
1 41960U 17008N   22135.70842839  .00040658  00000-0  10379-2 0  9995
2 41960  97.2815 205.4232 0003642 328.5217  31.5811 15.39373401292182
Source of the keplerian elements: AFSPC